Regional Weather Roundup
Issued by NWS Goodland, KS

Home | Current Version | Previous Version | Graphics & Text | Print | Product List | Glossary On
Versions: 1 2 3 4 5 6 7 8 9 10 11 12 13 14 15 16 17 18 19 20 21 22 23 24 25 26 27 28 29 30 31 32 33 34 35 36 37 38 39 40 41 42 43 44 45 46 47 48 49 50
000
ASUS43 KGLD 242008
RWRGLD

GOODLAND FORECAST AREA HOURLY WEATHER ROUNDUP
NATIONAL WEATHER SERVICE GOODLAND KS
200 PM MDT FRI OCT 24 2014

...OFFICIAL OBSERVATIONS...

CITY           SKY/WX    TMP DP  RH WIND       PRES   REMARKS
GOODLAND KS    SUNNY     85  29  13 S3        30.06F
HILL CITY KS   SUNNY     87  39  18 N9        29.98F
IMPERIAL NEB   MOSUNNY   84  30  14 W13       30.03F
MCCOOK NEB     MOSUNNY   84  38  19 SW9       29.99F
AKRON CO       SUNNY     80  24  12 W7        30.12F
BURLINGTON CO  SUNNY     84  21  10 SW3       30.09F
LIMON CO       SUNNY     79  20  11 CALM      30.17F
$$

...UNOFFICIAL OBSERVATIONS...

CITY           SKY/WX    TMP DP  RH WIND       PRES   REMARKS
COLBY KS       SUNNY     88  39  18 CALM      30.03F
NORTON KS      SUNNY     88  25  10 NW13      29.97F
SHARON SPRINGS   N/A     87  35  16 CALM        N/A
KIT CARSON CO    N/A     84  33  16 CALM        N/A
YUMA CO          N/A     83  27  13 W9G17       N/A
$$



USA.gov is the U.S. government's official web portal to all federal, state and local government web resources and services.